STARLINK-11518, 62462

Orbit data source: Space-Track

STARLINK-11518, 62462 is a payload satellite owned by SpaceX/Seattle (US) in LEO that was launched on Tue, 31 Dec 2024 UTC via an FALCON 9 launch vehicle from the Air Force Eastern Test Range (AFETR). Payloads include a variety of satellites, spacecraft, and rockets equipped with specific instruments for various scientific and technological missions. These include communications satellites like Starlink; space stations such as the ISS; scientific satellites like the Hubble; Earth observation satellites from companies like Planet Labs, Umbra, and HawkEye 360; GPS; miniature CubeSats for education and research; and military/defense satellites.

Loading next visibility...
STARLINK-11518 details
Identifier
62462, 2024-254A
Orbit
LEO
Last TLE update16 hours ago
Origin
Flag of USSpaceX/Seattle (US)
ManufacturerSpaceX/Seattle
MissionOperational Commercial Communications
Bus & MotorSTARLINK V2M, Unknown motor
Mass730 kg wet, ~700 kg dry
Launch date (UTC)
2024-12-31 (1 month ago)
Launch vehicle
FALCON 9
Launch site
Air Force Eastern Test Range (AFETR)
Object type
Payload
Rocket body
Debris
Shape & HBRBox + 2 Pan, 29 m
Radar Cross Section36.964 m², Large (>1 m²)

Expand to show TLE details & history

TLE from 16 hours ago
0 STARLINK-11518
1 62462U 24254A   25035.54284879  .00000405  00000-0  51933-5 0  9994
2 62462  43.0005 104.6243 0001215 269.6663  90.4068 15.77851122  6766
Epoch: 2025-02-04T13:01Z
Definitive object data (Epoch: 2025-02-04T13:01:42.135Z)
Latitude-0.00002°
Longitude134.25208°
Altitude336.307 km
Speed7.709 km/s
True Right ascension06h 58m 29s
True Declination0° 00' 00"
Sunlit
Object was in full shadow at TLE epoch
Visualization TLE readout
Latitude19.774°
Longitude-72.3075°
Altitude336.297 km
Speed7.71 km/s
Apparent Right ascension17h 56m 13s
Apparent Declination-9° 23' 53"
Sunlit
Object is in daylight
Visualization observer readout
Local Sidereal Time06:53:11
Azimuth26.426° NE
Elevation-56.952°
Doppler factor1
Orbital elements
Apogee altitude339.334 km
Perigee altitude337.701 km
Semi-major axis6,716.655 km
Eccentricity0.0001215
Inclination43.0005°
RAAN104.6243°
Arg. of periapsis269.6663°
True anomaly90.42072°
Mean anomaly90.4068°
Eccentric anomaly90.41376°
Mean motion3.94288 °/min
BSTAR0.0000051933
Orbital period91.3 mins
Loading maneuver chart data...
Loading historical data...
Loading historical data...
Loading historical data...
Loading historical data...
Loading historical data...
Loading historical data...
Loading historical data...

STARLINK-11518 Visibility forecast

Observer location: undefined°, undefined

Span
Click to sort rows by Start time (UTC) header in descending order
Start Az.
Max El. time (UTC)
Max El. Az.
Max El.
End time (UTC)
End Az.
4 mins2025-02-05 10:39:16.359Z297.398° NW2025-02-05 10:41:16.359Z22.573° NE32.423°2025-02-05 10:43:16.359Z72.104° E
4 mins2025-02-05 12:15:16.359Z288.781° WNW2025-02-05 12:16:16.359Z290.128° WNW39.886°2025-02-05 12:19:16.359Z108.51° ESE
|